Location: Klein M�hlingen
(51.9472°N, 11.7453°E)
Time: 02:20:35
(UTC+00:00)

ISS - Visible Passes

Search period start: 27 September 2021 00:00
Search period end: 07 October 2021 00:00
Orbit: 417 x 423 km, 51.6° (Epoch: 26 September)

Date Brightness Start Highest point End Pass type
(mag) Time Alt. Az. Time Alt. Az. Time Alt. Az.
27 Sep -3.8 18:16:38 10° W 18:20:01 83° S 18:21:48 26° E visible
27 Sep -1.3 19:53:31 10° W 19:54:46 19° W 19:54:46 19° W visible
28 Sep -3.7 17:29:24 10° W 17:32:47 87° S 17:36:10 10° E visible
28 Sep -3.1 19:06:14 10° W 19:09:18 48° SW 19:09:18 48° SW visible
29 Sep -3.5 18:19:01 10° W 18:22:22 62° SSW 18:23:53 29° SE visible
29 Sep -0.8 19:56:14 10° W 19:56:51 13° WSW 19:56:51 13° WSW visible
30 Sep -3.6 17:31:50 10° W 17:35:13 74° SSW 17:38:33 10° ESE visible
30 Sep -2.1 19:08:50 10° W 19:11:31 27° SW 19:11:31 27° SW visible
01 Oct -2.6 18:21:37 10° W 18:24:44 36° SSW 18:26:16 23° SSE visible
02 Oct -3.0 17:34:28 10° W 17:37:43 48° SSW 17:41:00 10° SE visible
02 Oct -1.2 19:12:11 10° WSW 19:13:59 14° SW 19:14:06 14° SW visible
03 Oct -1.5 18:24:37 10° W 18:27:07 19° SW 18:29:03 13° S visible
04 Oct -1.9 17:37:22 10° W 17:40:15 26° SSW 17:43:08 10° SSE visible
06 Oct -0.9 17:41:03 10° WSW 17:42:46 13° SW 17:44:27 10° S visible
